CAPE
55 14 3 5 0 0 0 3 46 79 81 527 881 862 605 677 686 627 551 484 430 371 320 314 375 1034 1005 758 653 735 312 119 167 204 253 370 769 875 991 1129 1246 1485 1724 1889
76 44 23 100 120 37 6 0 18 47 74 157 804 828 654 563 527 455 384 347 304 282 306 292 349 454 437 711 521 750 325 246 141 288 173 153 264 439 521 578 650 1050 1254 1542
106 43 104 90 58 62 83 99 138 57 406 361 539 490 499 455 388 320 226 167 145 170 279 467 306 382 546 447 251 228 196 118 76 56 81 83 33 46 102 220 268 256 428 796
113 90 90 90 13 22 55 60 90 158 197 313 405 425 438 444 421 325 252 177 135 174 253 481 561 525 327 268 502 337 192 96 111 143 64 21 5 17 39 51 147 154 190 178
164 170 94 12 0 0 5 57 55 197 243 378 429 270 354 299 207 165 132 113 139 143 277 311 433 452 406 352 489 411 226 132 20 21 9 54 32 48 47 52 42 69 99 79
5 121 127 37 0 0 0 49 45 163 252 247 235 604 431 95 94 64 33 13 4 96 172 166 196 276 302 335 247 194 346 246 63 33 34 5 2 5 7 21 40 36 20 28
87 23 10 0 0 0 38 63 15 182 283 252 358 172 113 115 109 27 12 0 0 14 30 170 210 202 152 85 243 108 196 125 99 84 89 74 78 94 38 0 0 0 10 8
22 25 1 0 0 6 18 0 13 149 263 237 85 29 46 113 70 22 31 10 12 14 30 47 21 76 142 168 89 120 211 221 181 145 79 39 23 146 104 23 0 0 5 4
2 58 43 26 1 0 0 0 0 69 155 204 88 53 32 53 47 48 52 63 64 78 36 41 20 8 15 6 9 10 26 41 44 7 19 3 3 43 230 135 59 0 0 1
21 13 13 24 0 0 0 0 0 5 146 176 129 67 45 29 62 66 77 105 88 6 0 0 0 0 0 0 0 0 0 0 0 0 0 0 0 0 0 3 15 11 3 0
11 1 54 42 23 0 0 0 0 1 75 158 173 119 92 62 45 40 4 0 0 0 0 0 0 0 0 0 0 0 0 0 0 0 0 0 0 0 0 0 0 0 0 0
0 0 0 0 0 10 0 0 0 0 3 52 131 159 133 122 77 34 44 7 0 2 4 1 0 0 0 0 0 0 0 0 0 0 0 0 0 0 0 0 0 0 0 0
0 0 0 12 0 0 0 0 0 0 2 25 12 55 149 226 130 44 39 81 92 83 48 0 0 0 0 0 0 0 0 0 0 0 0 0 0 0 0 0 0 0 0 0
0 0 0 0 0 0 0 0 0 0 0 0 0 18 32 125 192 70 41 24 0 0 0 0 0 0 0 0 0 0 0 0 0 0 0 0 0 0 0 0 0 0 0 0
0 0 1 2 0 0 0 0 0 0 0 0 0 0 0 4 94 171 180 94 22 10 0 0 0 0 0 0 0 0 0 0 0 0 0 0 0 0 0 0 0 0 0 0
0 0 0 1 3 0 0 0 0 0 0 0 0 0 0 0 11 60 105 141 115 41 29 8 0 0 0 0 0 0 0 0 0 0 0 0 0 0 0 0 0 0 0 0
0 0 0 1 1 0 0 0 0 0 0 0 1 0 0 0 0 44 59 72 148 144 112 46 16 0 0 0 0 0 0 0 0 0 0 0 0 0 0 0 0 0 0 0
0 2 7 18 7 0 0 0 0 1 5 10 10 2 7 11 25 52 64 66 92 91 109 124 36 13 0 0 0 0 0 0 0 0 0 0 0 0 0 0 0 0 0 0
0 4 6 2 2 6 1 7 9 8 27 38 54 50 40 38 56 71 77 109 133 132 69 88 43 27 15 0 0 0 0 0 0 0 0 0 0 0 0 0 0 0 0 0
0 21 30 50 70 86 148 77 56 47 51 48 66 75 75 64 72 69 74 160 160 154 46 76 24 5 14 0 12 0 1 0 0 0 0 0 0 0 0 0 0 0 0 0
65 117 153 139 32 1 0 0 0 0 0 0 0 5 11 14 57 87 103 100 154 241 110 1 11 26 47 5 8 0 5 4 2 0 0 0 0 0 0 0 0 0 0 0
51 22 6 3 1 0 0 0 0 0 0 0 3 5 8 5 6 7 19 165 217 45 171 124 109 8 2 7 6 2 14 5 0 0 0 0 0 0 0 0 0 0 0 0
0 1 0 0 0 0 0 0 0 1 6 13 14 14 16 11 20 15 11 35 92 141 196 184 84 0 9 0 6 2 4 8 4 1 1 0 1 0 0 0 0 0 0 0
0 0 0 0 0 0 2 0 2 4 9 12 22 12 44 16 11 9 27 27 1 27 317 250 113 0 6 4 0 0 1 4 5 0 0 0 0 0 0 0 0 0 8 21
0 1 0 0 1 6 2 1 6 10 17 31 33 41 65 64 6 25 51 98 23 31 381 227 134 106 77 20 20 0 0 0 0 0 0 0 0 0 0 0 6 46 48 41
4 13 9 0 6 3 5 7 20 15 25 33 48 59 84 83 160 146 260 151 253 169 373 323 338 272 173 22 11 4 2 4 0 0 0 0 40 0 0 40 49 59 58 46
13 2 1 3 4 5 6 8 22 39 29 33 40 42 35 64 82 393 191 359 295 446 300 158 66 26 3 5 12 5 0 0 0 0 0 129 148 111 98 86 67 68 67 41
CIN
-3 -1 -2 0 0 0 0 0 0 0 -1 -17 -98 -130 -203 -144 -137 -120 -120 -120 -116 -115 -99 -95 -74 0 0 0 -5 -8 -38 -40 -36 -11 -4 -7 -1 0 0 0 0 0 0 0
-18 -12 -1 0 -4 -2 -2 0 -1 -7 -2 -119 -106 -136 -176 -111 -123 -107 -105 -96 -78 -168 -126 -129 -86 -36 -21 -1 -4 0 -3 -5 -7 0 -2 -1 0 0 0 -2 0 0 0 0
-1 -19 -6 0 -4 -3 -16 -18 -5 0 -25 -102 -139 -201 -193 -192 -134 -147 -102 -69 -40 -224 -167 -89 -91 -59 -19 -16 -20 -15 -14 -31 -41 -19 -16 0 -1 -6 -11 -8 -9 -20 -2 0
0 -4 0 -17 -10 -42 -23 -49 -42 -51 -81 -114 -140 -145 -150 -138 -164 -100 -74 -127 -42 -213 -168 -87 -52 -42 -50 -43 -7 -4 -12 -30 -34 -13 -17 -43 -2 -6 -25 -37 -15 -26 -30 -40
0 0 0 -10 0 -7 -24 -4 -61 -55 -98 -100 -128 -143 -115 -101 -136 -113 -72 -76 -188 -190 -120 -100 -53 -32 -35 -33 -9 -12 -16 -16 -30 -95 -20 -41 -31 -19 -12 -26 -24 -16 -29 -24
-6 0 0 -8 0 0 0 -7 -77 -31 -60 -104 -130 -33 -40 -141 -134 -159 -160 -131 -232 -156 -106 -102 -70 -45 -33 -9 -20 -31 -1 -3 -29 -48 -59 -9 -7 -27 -1 -24 -42 0 -4 -14
0 0 -1 0 0 0 -28 -48 -90 -39 -26 -41 -20 -79 -121 -114 -110 -165 -190 0 0 -105 -86 -75 -55 -31 -39 -57 -1 -24 -5 -13 -12 -11 -7 -10 -10 -19 -35 -6 0 0 -29 -37
-25 -10 0 0 0 -43 -65 -5 -122 -43 -25 -23 -103 -134 -80 -74 -104 -120 -102 -158 -122 -109 -80 -69 -29 -34 -21 -10 -37 -12 -1 -1 -1 -2 -20 -35 -52 -4 -5 -35 0 0 -19 -22
-5 -13 -98 -117 -11 0 0 0 -3 -51 -35 -46 -104 -129 -143 -80 -66 -57 -47 -54 -59 -36 -54 -45 -49 -16 -42 -22 -75 -105 -78 -52 -50 -110 -68 -61 -79 -50 -1 -3 -9 0 -1 -3
-96 -45 -131 -111 -24 0 0 0 0 -39 -37 -46 -73 -95 -81 -64 -59 -50 -34 -11 -16 -61 0 0 0 0 0 0 0 0 0 0 0 0 0 0 0 0 0 -59 -27 -35 -37 0
-59 -58 -106 -109 -125 0 0 0 0 -67 -50 -41 -56 -80 -92 -112 -48 -23 -37 0 0 0 0 0 0 0 0 0 0 0 0 0 0 0 0 0 0 0 0 0 0 0 0 0
0 0 0 0 -29 -171 0 0 0 0 -31 -90 -36 -33 -53 -54 -77 -50 -19 -14 0 -23 -24 -29 0 0 0 0 0 0 0 0 0 0 0 0 0 0 0 0 0 0 0 0
0 0 0 -142 0 0 0 0 0 0 -123 -123 -132 -71 -26 0 -29 -17 -12 -5 -2 -4 -3 -1 0 0 0 0 0 0 0 0 0 0 0 0 0 0 0 0 0 0 0 0
0 0 0 0 0 0 0 0 0 0 0 0 -28 -78 -56 -14 -12 -59 -81 -88 0 0 0 0 0 0 0 0 0 0 0 0 0 0 0 0 0 0 0 0 0 0 0 0
0 0 0 0 0 0 0 0 0 0 0 0 0 0 0 -10 -14 -24 -30 -30 -20 -30 0 0 0 0 0 0 0 0 0 0 0 0 0 0 0 0 0 0 0 0 0 0
0 0 0 0 0 0 0 0 0 0 0 0 0 0 0 0 -18 -14 -13 -5 -5 -38 -60 -46 0 0 0 0 0 0 0 0 0 0 0 0 0 0 0 0 0 0 0 0
0 0 0 0 0 0 0 0 0 0 0 0 0 0 0 0 0 -14 -20 -24 -16 -21 -9 -19 -54 0 0 0 0 0 0 0 0 0 0 0 0 0 0 0 0 0 0 0
0 0 0 0 0 0 0 0 0 0 0 0 0 0 0 0 -4 -2 -1 -5 -5 -12 -17 -1 -35 -45 -1 0 0 0 0 0 0 0 0 0 0 0 0 0 0 0 0 0
0 0 0 -1 0 -1 0 0 0 0 0 0 0 0 0 0 0 -3 -2 0 0 0 -24 -20 -33 -34 0 0 0 0 0 0 0 0 0 0 0 0 0 0 0 0 0 0
0 0 0 -4 -4 0 0 -2 0 0 0 0 0 0 0 0 0 0 0 0 0 0 0 -4 -28 -4 -8 -1 -1 0 -2 0 0 0 0 0 0 0 0 0 0 0 0 0
-12 -5 -2 -9 -20 -17 0 0 0 0 0 0 0 -5 -2 -1 0 0 -3 -1 0 0 -1 -2 -3 -8 -3 -2 0 0 0 -2 -1 0 0 0 0 0 0 0 0 0 0 0
-10 -29 -42 -27 0 0 0 0 0 0 0 0 0 0 0 0 0 0 0 0 0 -13 0 0 0 -1 -2 -6 -14 0 0 0 0 0 0 0 0 0 0 0 0 0 0 0
-4 -1 0 0 0 0 0 0 0 0 0 0 0 0 0 0 0 0 0 -2 -1 -6 0 0 -3 0 0 0 0 -1 -1 -1 0 0 0 0 -7 0 0 0 0 0 0 0
0 0 0 0 0 0 0 0 0 0 0 0 0 0 -6 0 0 0 0 -2 0 -7 0 -1 -2 0 0 0 0 -2 0 -3 -1 -1 0 0 0 0 0 0 0 0 0 0
0 0 0 0 0 0 0 0 0 0 0 0 0 0 0 0 0 0 -7 -14 -12 -31 0 -5 -18 -3 -2 0 0 0 0 0 0 0 0 0 0 0 0 0 0 0 0 0
0 0 0 0 0 0 0 0 0 0 0 0 0 0 0 0 0 -1 0 -9 0 -9 0 0 0 0 0 -4 0 -6 0 -2 0 0 0 0 0 0 0 0 0 0 0 0
0 0 0 0 0 0 0 0 0 0 -2 0 0 0 0 0 -6 0 -9 0 0 0 0 0 -2 -8 -32 0 -1 0 0 0 0 0 0 0 0 0 0 0 0 0 0 0
Wind_Speed
nan nan nan nan nan nan nan nan nan nan nan 36 29 19 18 23 24 20 21 25 27 30 28 24 22 24 23 20 27 25 23 21 26 23 31 31 32 27 31 32 28 23 19 20
nan nan nan 32 29 nan nan nan nan nan nan 31 33 32 27 25 26 24 24 26 24 24 25 24 24 25 26 29 29 26 26 31 29 38 43 34 33 31 31 35 35 32 26 26
31 nan 26 nan nan nan nan nan 33 nan 45 36 34 30 29 31 27 28 29 31 30 28 25 23 29 32 35 35 37 35 34 30 nan nan nan nan nan nan 27 37 35 36 35 36
19 nan nan nan nan nan nan nan nan 37 36 32 30 31 31 32 33 33 35 37 39 38 37 37 36 36 36 37 33 34 38 nan 27 26 nan nan nan nan nan nan 21 17 28 40
16 12 nan nan nan nan nan nan nan 41 37 38 38 35 34 30 33 37 40 40 41 42 43 43 43 43 42 38 36 33 30 30 nan nan nan nan nan nan nan nan nan nan nan nan
nan 17 12 nan nan nan nan nan nan 38 38 37 35 27 40 nan nan nan nan nan nan nan 47 46 44 45 48 46 42 39 35 33 nan nan nan nan nan nan nan nan nan nan nan nan
nan nan nan nan nan nan nan nan nan 36 38 38 37 44 41 43 45 nan nan nan nan nan nan 46 45 45 44 nan 44 40 39 37 nan nan nan nan nan nan nan nan nan nan nan nan
nan nan nan nan nan nan nan nan nan 34 38 40 nan nan nan 46 nan nan nan nan nan nan nan nan nan nan 50 48 nan 39 37 38 38 36 nan nan nan 28 28 nan nan nan nan nan
nan nan nan nan nan nan nan nan nan nan 34 33 nan nan nan nan nan nan nan nan nan nan nan nan nan nan nan nan nan nan nan nan nan nan nan nan nan nan 35 34 nan nan nan nan
nan nan nan nan nan nan nan nan nan nan 28 28 29 nan nan nan nan nan nan 43 nan nan nan nan nan nan nan nan nan nan nan nan nan nan nan nan nan nan nan nan nan nan nan nan
nan nan nan nan nan nan nan nan nan nan nan 26 27 28 nan nan nan nan nan nan nan nan nan nan nan nan nan nan nan nan nan nan nan nan nan nan nan nan nan nan nan nan nan nan
nan nan nan nan nan nan nan nan nan nan nan nan 24 26 27 30 nan nan nan nan nan nan nan nan nan nan nan nan nan nan nan nan nan nan nan nan nan nan nan nan nan nan nan nan
nan nan nan nan nan nan nan nan nan nan nan nan nan nan 25 25 28 nan nan nan nan nan nan nan nan nan nan nan nan nan nan nan nan nan nan nan nan nan nan nan nan nan nan nan
nan nan nan nan nan nan nan nan nan nan nan nan nan nan nan 30 35 nan nan nan nan nan nan nan nan nan nan nan nan nan nan nan nan nan nan nan nan nan nan nan nan nan nan nan
nan nan nan nan nan nan nan nan nan nan nan nan nan nan nan nan nan 34 32 nan nan nan nan nan nan nan nan nan nan nan nan nan nan nan nan nan nan nan nan nan nan nan nan nan
nan nan nan nan nan nan nan nan nan nan nan nan nan nan nan nan nan nan 33 34 35 nan nan nan nan nan nan nan nan nan nan nan nan nan nan nan nan nan nan nan nan nan nan nan
nan nan nan nan nan nan nan nan nan nan nan nan nan nan nan nan nan nan nan nan 35 34 37 nan nan nan nan nan nan nan nan nan nan nan nan nan nan nan nan nan nan nan nan nan
nan nan nan nan nan nan nan nan nan nan nan nan nan nan nan nan nan nan nan nan nan nan 37 42 nan nan nan nan nan nan nan nan nan nan nan nan nan nan nan nan nan nan nan nan
nan nan nan nan nan nan nan nan nan nan nan nan nan nan nan nan nan nan nan 38 39 41 nan nan nan nan nan nan nan nan nan nan nan nan nan nan nan nan nan nan nan nan nan nan
nan nan nan nan nan nan 33 nan nan nan nan nan nan nan nan nan nan nan nan 36 38 40 nan nan nan nan nan nan nan nan nan nan nan nan nan nan nan nan nan nan nan nan nan nan
nan 33 34 34 nan nan nan nan nan nan nan nan nan nan nan nan nan nan 33 34 37 40 40 nan nan nan nan nan nan nan nan nan nan nan nan nan nan nan nan nan nan nan nan nan
nan nan nan nan nan nan nan nan nan nan nan nan nan nan nan nan nan nan nan 34 35 nan 42 42 40 nan nan nan nan nan nan nan nan nan nan nan nan nan nan nan nan nan nan nan
nan nan nan nan nan nan nan nan nan nan nan nan nan nan nan nan nan nan nan nan nan 38 35 37 nan nan nan nan nan nan nan nan nan nan nan nan nan nan nan nan nan nan nan nan
nan nan nan nan nan nan nan nan nan nan nan nan nan nan nan nan nan nan nan nan nan nan 29 33 40 nan nan nan nan nan nan nan nan nan nan nan nan nan nan nan nan nan nan nan
nan nan nan nan nan nan nan nan nan nan nan nan nan nan nan nan nan nan nan nan nan nan 21 27 32 31 nan nan nan nan nan nan nan nan nan nan nan nan nan nan nan nan nan nan
nan nan nan nan nan nan nan nan nan nan nan nan nan nan nan nan 29 22 15 14 18 23 24 26 24 20 20 nan nan nan nan nan nan nan nan nan nan nan nan nan nan nan nan nan
nan nan nan nan nan nan nan nan nan nan nan nan nan nan nan nan nan 18 11 14 13 13 16 23 nan nan nan nan nan nan nan nan nan nan nan 28 24 25 nan nan nan nan nan nan
Wind_Direction
nan nan nan nan nan nan nan nan nan nan nan 238 250 244 237 238 242 244 241 247 250 254 258 258 265 291 269 275 257 270 294 264 284 256 269 264 256 255 246 239 239 239 247 254
nan nan nan 237 227 nan nan nan nan nan nan 234 252 254 253 243 238 234 235 241 240 248 256 254 246 254 269 283 290 299 301 297 282 268 266 252 247 247 247 245 240 235 239 241
232 nan 224 nan nan nan nan nan 219 nan 238 249 259 260 261 257 249 244 241 243 246 245 245 248 249 252 257 264 271 274 276 274 nan nan nan nan nan nan 248 251 253 251 244 250
212 nan nan nan nan nan nan nan nan 233 241 250 255 257 254 253 261 258 252 247 248 249 250 250 250 248 259 259 265 269 272 nan 267 267 nan nan nan nan nan nan 254 265 266 253
227 237 nan nan nan nan nan nan nan 241 246 254 255 253 253 251 249 254 256 256 252 252 252 253 254 253 252 254 257 254 267 269 nan nan nan nan nan nan nan nan nan nan nan nan
nan 184 227 nan nan nan nan nan nan 244 252 258 261 257 252 nan nan nan nan nan nan nan 253 252 252 254 252 250 250 254 252 257 nan nan nan nan nan nan nan nan nan nan nan nan
nan nan nan nan nan nan nan nan nan 242 250 253 249 247 254 261 259 nan nan nan nan nan nan 252 250 249 250 nan 255 253 253 251 nan nan nan nan nan nan nan nan nan nan nan nan
nan nan nan nan nan nan nan nan nan 245 250 252 nan nan nan 264 nan nan nan nan nan nan nan nan nan nan 250 247 nan 250 249 254 249 242 nan nan nan 244 246 nan nan nan nan nan
nan nan nan nan nan nan nan nan nan nan 253 254 nan nan nan nan nan nan nan nan nan nan nan nan nan nan nan nan nan nan nan nan nan nan nan nan nan nan 261 261 nan nan nan nan
nan nan nan nan nan nan nan nan nan nan 246 259 261 nan nan nan nan nan nan 270 nan nan nan nan nan nan nan nan nan nan nan nan nan nan nan nan nan nan nan nan nan nan nan nan
nan nan nan nan nan nan nan nan nan nan nan 250 257 263 nan nan nan nan nan nan nan nan nan nan nan nan nan nan nan nan nan nan nan nan nan nan nan nan nan nan nan nan nan nan
nan nan nan nan nan nan nan nan nan nan nan nan 257 260 265 267 nan nan nan nan nan nan nan nan nan nan nan nan nan nan nan nan nan nan nan nan nan nan nan nan nan nan nan nan
nan nan nan nan nan nan nan nan nan nan nan nan nan nan 272 271 270 nan nan nan nan nan nan nan nan nan nan nan nan nan nan nan nan nan nan nan nan nan nan nan nan nan nan nan
nan nan nan nan nan nan nan nan nan nan nan nan nan nan nan 268 274 nan nan nan nan nan nan nan nan nan nan nan nan nan nan nan nan nan nan nan nan nan nan nan nan nan nan nan
nan nan nan nan nan nan nan nan nan nan nan nan nan nan nan nan nan 273 269 nan nan nan nan nan nan nan nan nan nan nan nan nan nan nan nan nan nan nan nan nan nan nan nan nan
nan nan nan nan nan nan nan nan nan nan nan nan nan nan nan nan nan nan 263 264 268 nan nan nan nan nan nan nan nan nan nan nan nan nan nan nan nan nan nan nan nan nan nan nan
nan nan nan nan nan nan nan nan nan nan nan nan nan nan nan nan nan nan nan nan 259 257 259 nan nan nan nan nan nan nan nan nan nan nan nan nan nan nan nan nan nan nan nan nan
nan nan nan nan nan nan nan nan nan nan nan nan nan nan nan nan nan nan nan nan nan nan 267 275 nan nan nan nan nan nan nan nan nan nan nan nan nan nan nan nan nan nan nan nan
nan nan nan nan nan nan nan nan nan nan nan nan nan nan nan nan nan nan nan 257 260 262 nan nan nan nan nan nan nan nan nan nan nan nan nan nan nan nan nan nan nan nan nan nan
nan nan nan nan nan nan 280 nan nan nan nan nan nan nan nan nan nan nan nan 265 263 262 nan nan nan nan nan nan nan nan nan nan nan nan nan nan nan nan nan nan nan nan nan nan
nan 301 296 295 nan nan nan nan nan nan nan nan nan nan nan nan nan nan 271 269 271 270 268 nan nan nan nan nan nan nan nan nan nan nan nan nan nan nan nan nan nan nan nan nan
nan nan nan nan nan nan nan nan nan nan nan nan nan nan nan nan nan nan nan 275 261 nan 268 270 267 nan nan nan nan nan nan nan nan nan nan nan nan nan nan nan nan nan nan nan
nan nan nan nan nan nan nan nan nan nan nan nan nan nan nan nan nan nan nan nan nan 274 271 266 nan nan nan nan nan nan nan nan nan nan nan nan nan nan nan nan nan nan nan nan
nan nan nan nan nan nan nan nan nan nan nan nan nan nan nan nan nan nan nan nan nan nan 265 265 270 nan nan nan nan nan nan nan nan nan nan nan nan nan nan nan nan nan nan nan
nan nan nan nan nan nan nan nan nan nan nan nan nan nan nan nan nan nan nan nan nan nan 264 264 265 272 nan nan nan nan nan nan nan nan nan nan nan nan nan nan nan nan nan nan
nan nan nan nan nan nan nan nan nan nan nan nan nan nan nan nan 304 304 285 261 251 264 261 254 257 249 248 nan nan nan nan nan nan nan nan nan nan nan nan nan nan nan nan nan
nan nan nan nan nan nan nan nan nan nan nan nan nan nan nan nan nan 291 277 265 270 265 251 250 nan nan nan nan nan nan nan nan nan nan nan 228 232 235 nan nan nan nan nan nan